Flag for South Africa Weather past 2 weeks in Bloemfontein, South Africa

Now
77 °F

Passing clouds.


Feels Like: 78 °F
Forecast: 66 / 87 °F
Wind: 17 mph from Southeast

Location: Bloemfontein Airport

Current Time: Jan 25, 2015 at 9:31:19 PM

Latest Report: Jan 25, 2015 at 8:00 PM


Visibility: N/A

Pressure: 30.01 "Hg

Humidity: 36%

Dew point: 48 °F

Location of BloemfonteinLocation

Historic Weather in Bloemfontein — Graph

°F

Bloemfontein temperature yesterday

Maximum temperature yesterday: 95 °F (at 2:00 PM)
Minimum temperature yesterday: 64 °F (at 5:00 AM)
Average temperature yesterday: 80 °F

Past Weeks' High & Low Weather Summary

 TemperatureHumidityPressure
High95 °F (Jan 24, 2:00 PM)88% (Jan 11, 5:00 AM)30.30 "Hg (Jan 11, 5:00 AM)
Low50 °F (Jan 18, 5:00 AM)11% (Jan 23, 2:00 PM)29.83 "Hg (Jan 16, 5:00 PM)
Average74 °F47%30.09 "Hg
* Reported Jan 10 8:00 PM — Jan 25 8:00 PM, Bloemfontein, Weather by CustomWeather, © 2014

Note: Actual official high and low records may vary slightly from our data, if they occured in-between our weather recording intervals... More about our weather records

Advertising

Bloemfontein weather history for previous 24 hours

 ConditionsComfort  
Time TempWeatherWind HumidityBarometerVisibility
8:00 PM
Jan 25
77 °FPassing clouds.17 mph36%30.01 "HgN/A
7:00 PM79 °FPassing clouds.25 mph39%29.95 "HgN/A
6:00 PM90 °FSunny.15 mph26%29.89 "Hg10 mi
5:00 PM91 °FSunny.9 mph16%29.89 "Hg10 mi
4:00 PM93 °FPassing clouds.10 mph20%29.92 "HgN/A
3:00 PM93 °FPassing clouds.14 mph20%29.92 "HgN/A
2:00 PM91 °FSunny.7 mph13%29.95 "Hg10 mi
1:00 PM91 °FPassing clouds.14 mph21%29.98 "HgN/A
12:00 PM90 °FPassing clouds.15 mph22%29.98 "HgN/A
11:00 AM90 °FSunny.8 mph17%30.01 "Hg10 mi
10:00 AM84 °FPassing clouds.10 mph31%30.01 "HgN/A
9:00 AM79 °FPassing clouds.10 mph39%30.01 "HgN/A
8:00 AM73 °FSunny.7 mph44%30.04 "Hg10 mi
7:00 AM72 °FSunny.12 mph50%30.01 "Hg10 mi
6:00 AM66 °FSunny.7 mph56%30.01 "Hg10 mi
5:00 AM64 °FSunny.2 mph56%29.98 "Hg10 mi
4:00 AM66 °FMild.7 mph56%29.98 "HgN/A
3:00 AM66 °FMild.3 mph52%30.01 "HgN/A
2:00 AM68 °FMild.2 mph46%30.01 "HgN/A
1:00 AM72 °FMild.8 mph44%29.98 "HgN/A
12:00 AM75 °FMild.9 mph39%30.01 "HgN/A
11:00 PM
Jan 24
77 °FWarm.8 mph42%30.01 "HgN/A
10:00 PM75 °FMild.6 mph41%29.98 "HgN/A
9:00 PM79 °FPleasantly warm.7 mph37%29.98 "HgN/A
Weather by CustomWeather, © 2014

See weather overviewHow to use our weather pages